Lake Louise, Canada 16 day weather forecast

Slopes altitude range 1630 m - 2730m

Number of lifts: 26 Pistes: 100km

In some cases the lift and piste totals shown are for the ski domain (e.g. Three Valleys) rather than individual resort (e.g. Courchevel)

Overview

The 16 day weather forecast is fully updated 4 times every day.

    • Sun 21 OCT 2018
    • Sun 21
    • -3C -2C
    • Mon 22 OCT 2018
    • Mon 22
    • -2C -2C
    • Tue 23 OCT 2018
    • Tue 23
    • -3C -2C
    • Wed 24 OCT 2018
    • Wed 24
    • -2C -1C
    • Thu 25 OCT 2018
    • Thu 25
    • -3C -2C
    • Fri 26 OCT 2018
    • Fri 26
    • -3C -2C
    • Sat 27 OCT 2018
    • Sat 27
    • -6C -5C
    • Sun 28 OCT 2018
    • Sun 28
    • -3C -2C
    • Mon 29 OCT 2018
    • Mon 29
    • -2C -1C
    • Tue 30 OCT 2018
    • Tue 30
    • 0C 1C
    • Wed 31 OCT 2018
    • Wed 31
    • 4C 7C
    • Thu 01 NOV 2018
    • Thu 01
    • -5C -3C
    • Fri 02 NOV 2018
    • Fri 02
    • -8C -4C
    • Sat 03 NOV 2018
    • Sat 03
    • -7C -5C
    • Sun 04 NOV 2018
    • Sun 04
    • -10C -5C
    • Mon 05 NOV 2018
    • Mon 05
    • -7C -2C

Date:

Time Type 0°C level Temp Chill Snow Cloud Speed Gust Dir Press
3:00 2032m -2°C -2_4 0cm 0% 4mph 4mph 1021mB
6:00 2004m -2°C -2_3 0cm 35% 3mph 4mph 1022mB
9:00 1918m -2°C -2_4 0cm 95% 4mph 5mph 1022mB
12:00 1800m -2°C -2_3 0cm 57% 3mph 4mph 1022mB
15:00 1874m -3°C -3_3 0cm 8% 3mph 4mph 1022mB
18:00 2951m 3°C 3_3 0cm 4% 3mph 3mph 1019mB
21:00 2812m 3°C 3_2 0cm 14% 2mph 2mph 1018mB
0:00 2875m 2°C 2_1 0cm 11% 1mph 2mph 1018mB
3:00 2111m -1°C -1_2 0cm 15% 2mph 3mph 1021mB
6:00 2020m -2°C -2_3 0cm 8% 3mph 3mph 1022mB
9:00 2015m -2°C -2_4 0cm 0% 4mph 4mph 1022mB
12:00 1981m -2°C -2_4 0cm 0% 4mph 4mph 1021mB
15:00 2041m -2°C -2_3 0cm 0% 3mph 4mph 1021mB
18:00 3454m 4°C 4_4 0cm 0% 4mph 5mph 1017mB
21:00 3500m 4°C 4_4 0cm 0% 4mph 5mph 1015mB
0:00 3560m 1°C 1_3 0cm 0% 3mph 4mph 1016mB
3:00 2037m -2°C -2_3 0cm 0% 3mph 4mph 1017mB
6:00 2038m -2°C -2_3 0cm 0% 3mph 4mph 1017mB
9:00 1970m -2°C -2_4 0cm 0% 4mph 5mph 1016mB
12:00 1908m -2°C -2_4 0cm 0% 4mph 5mph 1015mB
15:00 1949m -2°C -2_4 0cm 0% 4mph 5mph 1015mB
18:00 3588m 4°C 4_5 0cm 0% 5mph 6mph 1011mB
21:00 3490m 4°C 4_6 0cm 0% 6mph 8mph 1009mB
0:00 3336m 1°C 1_4 0cm 0% 4mph 5mph 1008mB
3:00 2129m -1°C -1_4 0cm 0% 4mph 6mph 1010mB
6:00 2124m -1°C -1_5 0cm 0% 5mph 6mph 1010mB
9:00 2027m -2°C -2_5 0cm 0% 5mph 6mph 1011mB
12:00 1947m -1°C -1_5 0cm 26% 5mph 6mph 1011mB
15:00 1928m -2°C -2_5 0cm 94% 5mph 6mph 1011mB
18:00 2406m 2°C 2_7 0cm 80% 7mph 9mph 1009mB
21:00 2448m 2°C 2_7 0cm 20% 7mph 10mph 1008mB
0:00 2259m 0°C 0_4 0cm 51% 4mph 5mph 1008mB
3:00 1979m -2°C -2_5 1cm 35% 5mph 6mph 1011mB
6:00 1986m -2°C -2_6 0cm 67% 6mph 7mph 1011mB
9:00 1851m -3°C -3_6 0cm 71% 6mph 7mph 1010mB
12:00 1830m -2°C -2_7 0cm 65% 7mph 10mph 1011mB
15:00 1832m -3°C -3_8 0cm 97% 8mph 10mph 1011mB
18:00 2196m -1°C -1_8 0cm 96% 8mph 11mph 1009mB
21:00 2303m -1°C -1_8 0cm 92% 8mph 11mph 1007mB
0:00 2170m -1°C -1_5 1cm 96% 5mph 7mph 1008mB
3:00 2028m -2°C -2_5 1cm 97% 5mph 7mph 1010mB
6:00 1909m -3°C -3_6 1cm 95% 6mph 8mph 1012mB
9:00 1821m -3°C -3_6 0cm 97% 6mph 7mph 1012mB
12:00 1765m -2°C -2_3 0cm 97% 3mph 4mph 1012mB
15:00 1756m -3°C -3_3 0cm 99% 3mph 4mph 1013mB
18:00 2076m -1°C -1_4 0cm 97% 4mph 5mph 1014mB
21:00 2172m -1°C -1_6 1cm 98% 6mph 7mph 1015mB
0:00 1979m -2°C -2_6 1cm 99% 6mph 8mph 1018mB
3:00 1739m -4°C -4_6 1cm 97% 6mph 8mph 1022mB
6:00 1536m -5°C -5_6 1cm 71% 6mph 7mph 1025mB
9:00 1459m -5°C -5_6 0cm 23% 6mph 8mph 1026mB
12:00 1314m -5°C -5_6 0cm 26% 6mph 7mph 1028mB
15:00 1245m -6°C -6_5 0cm 68% 5mph 5mph 1029mB
18:00 1643m -4°C -4_6 0cm 59% 6mph 7mph 1026mB
21:00 1910m -4°C -4_6 0cm 90% 6mph 8mph 1024mB
0:00 1703m -4°C -4_5 0cm 79% 5mph 6mph 1023mB
3:00 1572m -5°C -5_5 0cm 76% 5mph 6mph 1024mB
6:00 1567m -5°C -5_8 0cm 86% 8mph 11mph 1022mB
9:00 1653m -3°C -3_9 0cm 100% 9mph 14mph 1020mB
12:00 1720m -2°C -2_9 0cm 100% 9mph 13mph 1020mB
15:00 1999m -1°C -1_8 1cm 100% 8mph 12mph 1018mB
18:00 2645m 3°C 3_8 1cm 100% 8mph 13mph 1013mB
21:00 2669m 3°C 3_9 0cm 100% 9mph 14mph 1009mB
0:00 2429m 1°C 1_8 0cm 100% 8mph 13mph 1007mB
3:00 2038m -1°C -1_8 0cm 99% 8mph 11mph 1006mB
6:00 1984m -1°C -1_14 0cm 71% 14mph 43mph 1008mB
9:00 1947m -1°C -1_12 0cm 99% 12mph 36mph 1009mB
12:00 1760m -1°C -1_9 0cm 99% 9mph 15mph 1011mB
15:00 1739m -2°C -2_10 0cm 27% 10mph 17mph 1015mB
18:00 2229m 2°C 2_10 0cm 15% 10mph 19mph 1015mB
21:00 2260m 2°C 2_10 0cm 62% 10mph 17mph 1016mB
0:00 2018m -1°C -1_9 0cm 79% 9mph 15mph 1017mB
3:00 1913m -2°C -2_12 0cm 99% 12mph 24mph 1017mB
6:00 2282m -2°C -2_16 0cm 100% 16mph 41mph 1015mB
9:00 2495m 0°C 0_14 0cm 100% 14mph 40mph 1013mB
12:00 2147m 1°C 1_8 0cm 100% 8mph 12mph 1012mB
15:00 2661m 0°C 0_9 0cm 100% 9mph 14mph 1013mB
18:00 3214m 4°C 4_11 0cm 100% 11mph 21mph 1011mB
Morning 0.00520833mm 0 4367m 4°C 4_22 0cm 96% 22mph 55mph 1007mB
Afternoon 0.109375mm 0.25 2672m 7°C 7_20 0cm 63% 20mph 44mph 1001mB
Morning 0mm 0.375 1513m -3°C -3_13 3cm 20% 13mph 36mph 1006mB
Afternoon 0mm 0.1875 1492m -3°C -3_20 0cm 53% 20mph 34mph 1007mB
Morning 0mm 0.125 1136m -5°C -5_10 1cm 100% 10mph 23mph 1017mB
Afternoon 0.015625mm 0 1285m -4°C -4_8 1cm 57% 8mph 12mph 1020mB
Morning 0.00520833mm 0 980m -6°C -6_7 1cm 72% 7mph 11mph 1019mB
Afternoon 0mm 0 1163m -5°C -5_5 0cm 100% 5mph 9mph 1021mB
Morning 0mm 0.3125 513m -9°C -9_5 2cm 71% 5mph 6mph 1026mB
Afternoon 0.322917mm 0 1137m -5°C -5_10 0cm 42% 10mph 15mph 1022mB
Morning 0.510417mm 0 964m -7°C -7_10 0cm 84% 10mph 18mph 1019mB
Afternoon 0.00520833mm 0 1641m -2°C -2_12 0cm 61% 12mph 21mph 1016mB

16 day outlook at a glance

Forecast issued: 21/10/2018 02:18:29

Chat

Your comments and questions. In a resort? Let us know what it's like!


Characters left 250

For terms and conditions see Readers Comments on the Cookie and privacy policy page.